FW6530 Weather Reports


Display with metric or nautical units.
time (UTC)temp
F
wind
direction
speed
MPH
gust
MPH
rain 1hr
in
rain 24hr
in
rain mn
in
humidity
%
barometer
mb
20260831103047 65 306 6.0 13.0 0.00 0.00 0.00 52 1026.9
20260831102526 65 292 5.0 13.0 0.00 0.00 0.00 53 1027.0
20260831102025 64 214 4.0 16.0 0.00 0.00 0.00 54 1027.0
20260831101545 64 212 6.0 16.0 0.00 0.00 0.00 54 1027.0
20260831101025 64 265 7.0 16.0 0.00 0.00 0.00 54 1026.9
20260831100528 64 284 3.0 12.0 0.00 0.00 0.00 54 1026.7
20260831100049 64 260 6.0 11.0 0.00 0.00 0.00 54 1026.7
20260831095525 64 281 5.0 12.0 0.00 0.00 0.00 54 1026.6
20260831095028 64 286 6.0 12.0 0.00 0.00 0.00 54 1026.5
20260831094542 64 274 5.0 12.0 0.00 0.00 0.00 53 1026.5
20260831094025 64 242 6.0 12.0 0.00 0.00 0.00 53 1026.5
20260831093525 65 275 4.0 10.0 0.00 0.00 0.00 52 1026.5
20260831093053 65 273 4.0 11.0 0.00 0.00 0.00 52 1026.4
20260831092526 65 281 4.0 11.0 0.00 0.00 0.00 52 1026.3
20260831092030 65 292 4.0 10.0 0.00 0.00 0.00 52 1026.4
20260831091546 65 257 4.0 11.0 0.00 0.00 0.00 52 1026.3
20260831091027 65 264 4.0 13.0 0.00 0.00 0.00 52 1026.3
20260831090525 65 240 6.0 14.0 0.00 0.00 0.00 52 1026.3
20260831090043 65 267 6.0 14.0 0.00 0.00 0.00 53 1026.4
20260831085524 65 267 4.0 11.0 0.00 0.00 0.00 53 1026.4
20260831085029 65 269 5.0 11.0 0.00 0.00 0.00 53 1026.5
20260831084550 66 291 4.0 18.0 0.00 0.00 0.00 53 1026.5
20260831084025 66 226 6.0 18.0 0.00 0.00 0.00 53 1026.6
20260831083525 66 252 4.0 11.0 0.00 0.00 0.00 52 1026.5
20260831083053 66 274 6.0 14.0 0.00 0.00 0.00 52 1026.5
20260831082526 66 288 7.0 14.0 0.00 0.00 0.00 52 1026.6
20260831082028 66 269 6.0 11.0 0.00 0.00 0.00 52 1026.7
20260831081543 66 211 4.0 11.0 0.00 0.00 0.00 52 1026.7
20260831081027 66 209 4.0 11.0 0.00 0.00 0.00 52 1026.7
20260831080523 66 257 4.0 10.0 0.00 0.00 0.00 52 1026.7
20260831080051 66 286 4.0 11.0 0.00 0.00 0.00 52 1026.8
20260831075523 66 283 3.0 11.0 0.00 0.00 0.00 52 1026.7
20260831075026 66 242 2.0 8.0 0.00 0.00 0.00 51 1026.7
20260831074549 66 249 2.0 10.0 0.00 0.00 0.00 51 1026.7
20260831074023 67 242 3.0 10.0 0.00 0.00 0.00 50 1026.7
20260831073525 67 262 2.0 10.0 0.00 0.00 0.00 49 1026.7
20260831073057 67 258 3.0 10.0 0.00 0.00 0.00 49 1026.7
20260831072528 67 270 3.0 9.0 0.00 0.00 0.00 49 1026.6
20260831072022 67 304 2.0 9.0 0.00 0.00 0.00 48 1026.6
20260831071541 67 269 3.0 7.0 0.00 0.00 0.00 48 1026.5
20260831071024 67 263 2.0 7.0 0.00 0.00 0.00 48 1026.6
20260831070527 67 244 2.0 7.0 0.00 0.00 0.00 48 1026.7
20260831070051 68 245 1.0 10.0 0.00 0.00 0.00 48 1026.7
20260831065530 68 263 3.0 10.0 0.00 0.00 0.00 48 1026.6
20260831065024 67 246 4.0 8.0 0.00 0.00 0.00 48 1026.8
20260831064547 67 237 4.0 11.0 0.00 0.00 0.00 49 1026.8
20260831064024 66 252 5.0 11.0 0.00 0.00 0.00 49 1026.7
20260831063524 65 215 4.0 10.0 0.00 0.00 0.00 49 1026.7
20260831063045 65 0 0.0 1.0 0.00 0.00 0.00 50 1026.3
20260831062523 65 0 0.0 0.0 0.00 0.00 0.00 50 1026.1
20260831062028 65 0 0.0 2.0 0.00 0.00 0.00 50 1025.9
20260831061543 65 0 0.0 3.0 0.00 0.00 0.00 50 1025.9
20260831061025 65 32 1.0 3.0 0.00 0.00 0.00 50 1025.8
20260831060524 65 32 1.0 3.0 0.00 0.00 0.00 51 1025.8
20260831060052 64 32 1.0 4.0 0.00 0.00 0.00 51 1025.8
20260831055524 64 32 2.0 4.0 0.00 0.00 0.00 51 1025.9
20260831055024 64 32 2.0 4.0 0.00 0.00 0.00 51 1026.0
20260831054547 64 33 2.0 4.0 0.00 0.00 0.00 51 1026.0
20260831054025 64 33 3.0 4.0 0.00 0.00 0.00 51 1026.0
20260831053525 64 33 2.0 4.0 0.00 0.00 0.00 51 1026.0
20260831053051 64 34 3.0 4.0 0.00 0.00 0.00 51 1026.1
20260831052525 64 35 3.0 4.0 0.00 0.00 0.00 51 1026.0
20260831052028 65 36 2.0 3.0 0.00 0.00 0.00 51 1026.0
20260831051547 65 36 1.0 3.0 0.00 0.00 0.00 51 1026.1
20260831051023 65 36 1.0 3.0 0.00 0.00 0.00 50 1026.0
20260831050525 66 0 0.0 3.0 0.00 0.00 0.00 50 1026.0
20260831050045 66 0 1.0 4.0 0.00 0.00 0.00 50 1025.9
20260831045526 66 36 2.0 4.0 0.00 0.00 0.00 49 1026.0
20260831045024 67 36 3.0 4.0 0.00 0.00 0.00 48 1026.1
20260831044543 68 0 1.0 2.0 0.00 0.00 0.00 47 1026.1
20260831044028 68 0 0.0 3.0 0.00 0.00 0.00 47 1026.1
20260831043523 69 36 1.0 3.0 0.00 0.00 0.00 46 1026.0
20260831043049 69 0 0.0 4.0 0.00 0.00 0.00 45 1026.1
20260831042525 70 0 0.0 4.0 0.00 0.00 0.00 45 1026.1
20260831042025 70 115 0.0 4.0 0.00 0.00 0.00 44 1026.1
20260831041551 71 0 0.0 3.0 0.00 0.00 0.00 44 1026.1
20260831041023 71 114 1.0 3.0 0.00 0.00 0.00 43 1026.1
20260831040524 72 110 0.0 3.0 0.00 0.00 0.00 42 1026.1
20260831040043 72 63 1.0 2.0 0.00 0.00 0.00 42 1026.1
20260831035524 72 63 0.0 3.0 0.00 0.00 0.00 42 1026.2
20260831035023 72 63 0.0 9.0 0.00 0.00 0.00 41 1026.2
20260831034554 73 63 1.0 9.0 0.00 0.00 0.00 41 1026.1
20260831034026 73 63 1.0 6.0 0.00 0.00 0.00 41 1026.1
20260831033525 73 144 1.0 4.0 0.00 0.00 0.00 40 1025.9
20260831033042 73 144 1.0 3.0 0.00 0.00 0.00 40 1025.8
20260831032527 73 143 0.0 3.0 0.00 0.00 0.00 40 1025.7
20260831032023 73 0 1.0 3.0 0.00 0.00 0.00 40 1025.8
20260831031549 73 143 1.0 3.0 0.00 0.00 0.00 40 1025.7
20260831031024 73 142 0.0 3.0 0.00 0.00 0.00 40 1025.7
20260831030524 73 142 1.0 5.0 0.00 0.00 0.00 40 1025.5
20260831030045 73 142 2.0 5.0 0.00 0.00 0.00 40 1025.3
20260831025523 73 134 2.0 4.0 0.00 0.00 0.00 40 1025.4
20260831025023 73 128 1.0 3.0 0.00 0.00 0.00 40 1025.3
20260831024551 73 0 0.0 3.0 0.00 0.00 0.00 40 1025.3
20260831024024 74 127 1.0 3.0 0.00 0.00 0.00 40 1025.2
20260831023525 73 126 1.0 3.0 0.00 0.00 0.00 40 1025.2
20260831023048 74 126 0.0 4.0 0.00 0.00 0.00 40 1025.1
20260831022523 74 126 2.0 4.0 0.00 0.00 0.00 40 1025.0
20260831022024 74 115 2.0 4.0 0.00 0.00 0.00 39 1024.9
20260831021542 75 106 2.0 3.0 0.00 0.00 0.00 38 1024.9
20260831021024 76 105 0.0 2.0 0.00 0.00 0.00 38 1024.8
20260831020525 76 0 0.0 2.0 0.00 0.00 0.00 37 1024.7
20260831020044 77 0 0.0 2.0 0.00 0.00 0.00 36 1024.7
20260831015524 77 105 0.0 2.0 0.00 0.00 0.00 36 1024.6
20260831015022 78 104 0.0 3.0 0.00 0.00 0.00 36 1024.6
20260831014550 78 0 0.0 3.0 0.00 0.00 0.00 35 1024.5
20260831014026 79 103 0.0 1.0 0.00 0.00 0.00 34 1024.6
20260831013525 79 0 0.0 0.0 0.00 0.00 0.00 33 1024.5
20260831013050 80 0 0.0 0.0 0.00 0.00 0.00 33 1024.6
20260831012523 81 0 0.0 0.0 0.00 0.00 0.00 32 1024.6
20260831012023 81 0 0.0 1.0 0.00 0.00 0.00 32 1024.6
20260831011542 81 0 0.0 3.0 0.00 0.00 0.00 32 1024.5
20260831011027 81 0 0.0 3.0 0.00 0.00 0.00 31 1024.5
20260831010526 82 0 0.0 4.0 0.00 0.00 0.00 31 1024.5
20260831010049 82 95 1.0 4.0 0.00 0.00 0.00 31 1024.5
20260831005526 82 0 1.0 4.0 0.00 0.00 0.00 31 1024.5
20260831005023 82 92 2.0 4.0 0.00 0.00 0.00 31 1024.6
20260831004544 82 188 1.0 7.0 0.00 0.00 0.00 30 1024.7
20260831004024 83 189 1.0 7.0 0.00 0.00 0.00 30 1024.6
20260831003526 83 183 3.0 7.0 0.00 0.00 0.00 30 1024.6
20260831003058 83 0 0.0 4.0 0.00 0.00 0.00 30 1024.7
20260831002524 84 212 2.0 4.0 0.00 0.00 0.00 30 1024.7
20260831002025 84 228 1.0 4.0 0.00 0.00 0.00 30 1024.7
20260831001552 84 0 0.0 4.0 0.00 0.00 0.00 29 1024.8
20260831001024 85 227 0.0 4.0 0.00 0.00 0.00 30 1024.7
20260831000523 85 224 0.0 5.0 0.00 0.00 0.00 29 1024.8
20260831000046 85 224 1.0 5.0 0.00 0.00 0.00 29 1024.9
20260830235525 84 0 1.0 8.0 0.00 0.00 0.00 30 1024.8
20260830235027 85 0 1.0 8.0 0.00 0.00 0.00 29 1024.7
20260830234557 85 200 1.0 9.0 0.00 0.00 0.00 29 1024.7
20260830234025 85 205 3.0 9.0 0.00 0.00 0.00 29 1024.8
20260830233526 86 179 5.0 9.0 0.00 0.00 0.00 28 1024.7
20260830233054 87 236 2.0 6.0 0.00 0.00 0.00 27 1024.6
20260830232526 87 0 0.0 8.0 0.00 0.00 0.00 27 1024.6
20260830232028 87 115 0.0 10.0 0.00 0.00 0.00 28 1024.7
20260830231551 87 183 4.0 10.0 0.00 0.00 0.00 28 1024.7
20260830231027 87 167 4.0 10.0 0.00 0.00 0.00 28 1024.7
20260830230527 87 199 3.0 8.0 0.00 0.00 0.00 29 1024.7
20260830230049 87 277 3.0 10.0 0.00 0.00 0.00 29 1024.7
20260830225524 86 185 2.0 11.0 0.00 0.00 0.00 30 1024.7
20260830225024 87 186 5.0 11.0 0.00 0.00 0.00 30 1024.8
20260830224542 87 246 4.0 10.0 0.00 0.00 0.00 29 1024.9
20260830224025 87 198 3.0 9.0 0.00 0.00 0.00 30 1025.0
20260830223526 86 221 2.0 9.0 0.00 0.00 0.00 31 1025.0
20260830223043 86 238 3.0 11.0 0.00 0.00 0.00 31 1025.1
20260830222524 85 222 5.0 11.0 0.00 0.00 0.00 32 1025.2
20260830222025 84 202 5.0 11.0 0.00 0.00 0.00 33 1025.2
20260830221550 83 203 3.0 6.0 0.00 0.00 0.00 33 1025.2
20260830221024 84 311 2.0 6.0 0.00 0.00 0.00 31 1025.2
20260830220524 84 0 0.0 10.0 0.00 0.00 0.00 28 1025.3
20260830220055 84 79 2.0 11.0 0.00 0.00 0.00 29 1025.3
20260830215525 84 186 4.0 12.0 0.00 0.00 0.00 29 1025.3
20260830215026 84 185 6.0 16.0 0.00 0.00 0.00 29 1025.4
20260830214614 84 138 8.0 16.0 0.00 0.00 0.00 29 1025.4
20260830214025 84 187 7.0 15.0 0.00 0.00 0.00 29 1025.4
20260830213526 85 184 8.0 15.0 0.00 0.00 0.00 28 1025.6
20260830213046 84 161 8.0 13.0 0.00 0.00 0.00 29 1025.5
20260830212526 84 112 7.0 16.0 0.00 0.00 0.00 30 1025.5
20260830212024 84 65 9.0 16.0 0.00 0.00 0.00 29 1025.5
20260830211547 84 69 6.0 15.0 0.00 0.00 0.00 29 1025.5
20260830211025 84 82 6.0 13.0 0.00 0.00 0.00 29 1025.6
20260830210525 83 65 4.0 17.0 0.00 0.00 0.00 30 1025.7
20260830210056 83 86 6.0 17.0 0.00 0.00 0.00 29 1025.8
20260830205525 85 122 9.0 16.0 0.00 0.00 0.00 28 1025.7
20260830205024 85 93 6.0 14.0 0.00 0.00 0.00 27 1025.8
20260830204552 86 123 2.0 10.0 0.00 0.00 0.00 30 1026.0
20260830204024 86 148 5.0 14.0 0.00 0.00 0.00 30 1026.0
20260830203526 86 180 3.0 15.0 0.00 0.00 0.00 30 1025.9
20260830203052 86 179 3.0 15.0 0.00 0.00 0.00 30 1026.1
20260830202526 86 161 4.0 11.0 0.00 0.00 0.00 31 1026.1
20260830202024 85 107 4.0 17.0 0.00 0.00 0.00 32 1026.3
20260830201544 85 88 8.0 17.0 0.00 0.00 0.00 33 1026.4
20260830201024 84 99 6.0 14.0 0.00 0.00 0.00 33 1026.5
20260830200524 84 63 2.0 14.0 0.00 0.00 0.00 33 1026.4
20260830200042 84 44 4.0 15.0 0.00 0.00 0.00 33 1026.5
20260830195523 83 42 5.0 17.0 0.00 0.00 0.00 34 1026.6
20260830195024 83 84 7.0 17.0 0.00 0.00 0.00 33 1026.7
20260830194559 84 109 3.0 12.0 0.00 0.00 0.00 33 1026.8
20260830194027 84 108 7.0 12.0 0.00 0.00 0.00 33 1026.8
20260830193525 84 82 5.0 14.0 0.00 0.00 0.00 33 1026.8
20260830193117 84 109 6.0 16.0 0.00 0.00 0.00 33 1026.9
20260830192526 83 130 8.0 16.0 0.00 0.00 0.00 34 1027.0
20260830192023 83 79 4.0 21.0 0.00 0.00 0.00 34 1027.0
20260830191543 83 91 10.0 21.0 0.00 0.00 0.00 33 1027.0
20260830191025 83 101 7.0 21.0 0.00 0.00 0.00 33 1027.0
20260830190537 83 100 4.0 11.0 0.00 0.00 0.00 34 1026.9
20260830190043 83 61 5.0 15.0 0.00 0.00 0.00 33 1026.8
20260830185524 83 88 5.0 15.0 0.00 0.00 0.00 34 1026.9
20260830185026 83 97 7.0 17.0 0.00 0.00 0.00 33 1027.2
20260830184550 83 105 5.0 17.0 0.00 0.00 0.00 33 1027.3
20260830184026 83 98 6.0 17.0 0.00 0.00 0.00 33 1027.4
20260830183525 83 65 4.0 17.0 0.00 0.00 0.00 34 1027.5
20260830183046 83 80 7.0 17.0 0.00 0.00 0.00 33 1027.6
20260830182526 83 114 6.0 15.0 0.00 0.00 0.00 34 1027.7
20260830182025 83 105 6.0 13.0 0.00 0.00 0.00 33 1027.8
20260830181543 83 109 6.0 13.0 0.00 0.00 0.00 33 1028.0
20260830181025 83 132 5.0 12.0 0.00 0.00 0.00 34 1028.0
20260830180531 83 126 6.0 12.0 0.00 0.00 0.00 33 1028.0
20260830180044 82 110 5.0 11.0 0.00 0.00 0.00 34 1028.0
20260830175524 82 117 3.0 17.0 0.00 0.00 0.00 35 1028.2
20260830175024 81 115 6.0 17.0 0.00 0.00 0.00 36 1028.3
20260830174552 81 100 4.0 13.0 0.00 0.00 0.00 36 1028.3
20260830174026 80 0 3.0 13.0 0.00 0.00 0.00 36 1028.4
20260830173524 80 100 4.0 12.0 0.00 0.00 0.00 38 1028.5
20260830173103 79 160 2.0 12.0 0.00 0.00 0.00 39 1028.5
20260830172530 79 88 5.0 12.0 0.00 0.00 0.00 39 1028.7
20260830172028 79 95 3.0 12.0 0.00 0.00 0.00 40 1028.7
20260830171542 78 132 5.0 12.0 0.00 0.00 0.00 41 1028.8
20260830171025 78 94 5.0 11.0 0.00 0.00 0.00 40 1028.8
20260830170528 78 86 5.0 13.0 0.00 0.00 0.00 40 1028.9
20260830170050 78 101 6.0 13.0 0.00 0.00 0.00 40 1029.0
20260830165526 77 104 3.0 15.0 0.00 0.00 0.00 41 1029.2
20260830165024 76 205 6.0 15.0 0.00 0.00 0.00 42 1029.0
20260830164543 76 157 4.0 12.0 0.00 0.00 0.00 47 1029.0
20260830164024 75 184 5.0 12.0 0.00 0.00 0.00 46 1029.2
20260830163524 75 180 4.0 13.0 0.00 0.00 0.00 47 1029.2
20260830163049 75 173 4.0 13.0 0.00 0.00 0.00 48 1029.2
20260830162523 74 184 6.0 13.0 0.00 0.00 0.00 48 1029.2
20260830162023 74 165 7.0 12.0 0.00 0.00 0.00 50 1029.2
20260830161546 74 110 5.0 13.0 0.00 0.00 0.00 50 1029.1
20260830161023 74 153 6.0 13.0 0.00 0.00 0.00 50 1029.1
20260830160525 74 139 6.0 11.0 0.00 0.00 0.00 48 1029.1
20260830160043 74 193 5.0 10.0 0.00 0.00 0.00 48 1029.1
20260830155524 74 152 5.0 13.0 0.00 0.00 0.00 48 1029.1
20260830155024 74 173 4.0 13.0 0.00 0.00 0.00 47 1029.0
20260830154551 74 125 7.0 12.0 0.00 0.00 0.00 46 1029.0
20260830154025 74 179 6.0 12.0 0.00 0.00 0.00 46 1029.0
20260830153524 75 158 5.0 9.0 0.00 0.00 0.00 45 1029.0
20260830153050 75 138 5.0 9.0 0.00 0.00 0.00 44 1029.0
20260830152524 75 180 3.0 8.0 0.00 0.00 0.00 45 1028.8
20260830152026 75 204 3.0 7.0 0.00 0.00 0.00 46 1028.7
20260830151545 74 230 2.0 5.0 0.00 0.00 0.00 46 1028.6
20260830151027 74 231 1.0 5.0 0.00 0.00 0.00 47 1028.4
20260830150524 73 239 2.0 5.0 0.00 0.00 0.00 47 1028.5
20260830150050 72 198 2.0 8.0 0.00 0.00 0.00 50 1028.5
20260830145524 72 236 2.0 8.0 0.00 0.00 0.00 51 1028.6
20260830145025 71 181 2.0 8.0 0.00 0.00 0.00 52 1028.7
20260830144544 71 163 4.0 8.0 0.00 0.00 0.00 53 1028.8
20260830144024 70 183 4.0 8.0 0.00 0.00 0.00 53 1028.7
20260830143526 70 96 3.0 10.0 0.00 0.00 0.00 53 1028.8
20260830143050 70 163 4.0 10.0 0.00 0.00 0.00 53 1028.7
20260830142526 70 137 3.0 8.0 0.00 0.00 0.00 53 1028.7
20260830142031 70 123 4.0 9.0 0.00 0.00 0.00 52 1028.7
20260830141544 70 168 5.0 9.0 0.00 0.00 0.00 52 1028.8
20260830141024 70 167 4.0 7.0 0.00 0.00 0.00 52 1028.8
20260830140528 70 165 4.0 7.0 0.00 0.00 0.00 51 1028.8
20260830140044 71 145 3.0 7.0 0.00 0.00 0.00 50 1028.8
20260830135523 70 156 0.0 4.0 0.00 0.00 0.00 52 1028.5
20260830135026 70 0 0.0 4.0 0.00 0.00 0.00 53 1028.4
20260830134549 69 159 0.0 4.0 0.00 0.00 0.00 53 1028.4
20260830134024 69 0 0.0 0.0 0.00 0.00 0.00 55 1028.4
20260830133526 68 0 0.0 1.0 0.00 0.00 0.00 56 1028.4
20260830133042 67 0 0.0 1.0 0.00 0.00 0.00 57 1028.3
20260830132524 66 0 0.0 1.0 0.00 0.00 0.00 59 1028.3
20260830132023 65 0 0.0 2.0 0.00 0.00 0.00 60 1028.2
20260830131542 64 0 0.0 3.0 0.00 0.00 0.00 61 1028.2
20260830131024 63 0 1.0 3.0 0.00 0.00 0.00 62 1028.1
20260830130524 63 0 0.0 3.0 0.00 0.00 0.00 62 1028.2
20260830130050 63 0 0.0 1.0 0.00 0.00 0.00 61 1028.2
20260830125525 63 0 0.0 6.0 0.00 0.00 0.00 61 1028.1
20260830125030 63 0 2.0 6.0 0.00 0.00 0.00 61 1028.1
20260830124545 63 0 0.0 0.0 0.00 0.00 0.00 60 1028.0
20260830124028 63 0 0.0 0.0 0.00 0.00 0.00 60 1028.0
20260830123529 63 0 0.0 1.0 0.00 0.00 0.00 60 1028.0
20260830123044 63 0 0.0 1.0 0.00 0.00 0.00 60 1027.8
20260830122526 63 0 0.0 1.0 0.00 0.00 0.00 59 1027.7
20260830122026 63 0 0.0 2.0 0.00 0.00 0.00 58 1027.8
20260830121557 64 0 0.0 2.0 0.00 0.00 0.00 57 1027.8
20260830121024 64 0 0.0 2.0 0.00 0.00 0.00 57 1027.8
20260830120525 64 0 0.0 2.0 0.00 0.00 0.00 57 1027.7
20260830120051 64 0 0.0 2.0 0.00 0.00 0.00 57 1027.6
20260830115524 64 284 0.0 2.0 0.00 0.00 0.00 57 1027.6
20260830115024 64 0 0.0 2.0 0.00 0.00 0.00 57 1027.5
20260830114606 64 0 0.0 1.0 0.00 0.00 0.00 56 1027.5
20260830114025 65 0 0.0 2.0 0.00 0.00 0.00 56 1027.3
20260830113524 65 0 0.0 4.0 0.00 0.00 0.00 56 1027.3
20260830113042 65 284 1.0 4.0 0.00 0.00 0.00 56 1027.4
20260830112524 65 284 1.0 4.0 0.00 0.00 0.00 56 1027.4
20260830112024 65 284 0.0 2.0 0.00 0.00 0.00 56 1027.4
20260830111552 65 0 0.0 0.0 0.00 0.00 0.00 57 1027.4
20260830111026 65 0 0.0 1.0 0.00 0.00 0.00 56 1027.6
20260830110529 65 0 0.0 4.0 0.00 0.00 0.00 55 1027.6
20260830110050 65 0 0.0 4.0 0.00 0.00 0.00 55 1027.6
20260830105524 65 284 1.0 4.0 0.00 0.00 0.00 55 1027.4
20260830105025 65 284 0.0 3.0 0.00 0.00 0.00 55 1027.4
20260830104549 66 0 0.0 3.0 0.00 0.00 0.00 54 1027.4
20260830104029 66 294 0.0 3.0 0.00 0.00 0.00 54 1027.4
20260830103526 66 0 0.0 3.0 0.00 0.00 0.00 54 1027.3